EW4074 Weather Reports


Display with metric or nautical units.
time (UTC)temp
F
wind
direction
speed
MPH
gust
MPH
rain 1hr
in
rain 24hr
in
rain mn
in
humidity
%
barometer
mb
20260905133601 73 234 0.0 0.0 0.00 0.25 0.00 95 1041.2
20260905133055 73 242 0.0 0.0 0.00 0.25 0.00 97 1041.2
20260905132549 72 242 0.0 0.0 0.00 0.25 0.00 97 1041.2
20260905132035 72 245 0.0 0.0 0.00 0.25 0.00 98 1041.3
20260905131538 71 230 0.0 0.0 0.00 0.25 0.00 99 1041.3
20260905131031 71 230 0.0 0.0 0.00 0.25 0.00 99 1041.3
20260905130608 70 230 0.0 0.0 0.00 0.25 0.00 99 1041.5
20260905125514 70 230 0.0 0.0 0.00 0.25 0.00 99 1041.5
20260905125006 70 227 0.0 0.0 0.00 0.25 0.00 99 1041.4
20260905124455 70 227 0.0 0.0 0.00 0.25 0.00 99 1041.4
20260905123955 70 227 0.0 0.0 0.00 0.25 0.00 99 1041.4
20260905123450 70 227 0.0 0.0 0.00 0.25 0.00 99 1041.3
20260905122943 70 225 0.0 0.0 0.00 0.25 0.00 99 1041.3
20260905122438 69 225 0.0 0.0 0.00 0.25 0.00 99 1041.3
20260905122423 69 225 0.0 0.0 0.00 0.25 0.00 99 1041.2
20260905121649 69 225 0.0 0.0 0.00 0.25 0.00 99 1041.2
20260905121131 68 225 0.0 0.0 0.00 0.25 0.00 99 1041.2
20260905120414 68 225 0.0 0.0 0.00 0.25 0.00 99 1041.2
20260905115906 68 225 0.0 0.0 0.00 0.25 0.00 99 1041.2
20260905115402 68 225 0.0 0.0 0.00 0.25 0.00 99 1041.2
20260905114855 67 225 0.0 0.0 0.00 0.25 0.00 99 1041.0
20260905114350 67 225 0.0 0.0 0.00 0.25 0.00 99 1041.0
20260905113843 67 225 0.0 0.0 0.00 0.25 0.00 99 1040.8
20260905113548 67 225 0.0 0.0 0.00 0.25 0.00 99 1040.8
20260905113055 66 225 0.0 0.0 0.00 0.25 0.00 99 1040.8
20260905112325 66 225 0.0 0.0 0.00 0.25 0.00 99 1040.8
20260905111818 65 225 0.0 0.0 0.00 0.25 0.00 99 1040.8
20260905111313 65 225 0.0 0.0 0.00 0.25 0.00 99 1040.8
20260905110759 65 225 0.0 0.0 0.00 0.25 0.00 99 1040.7
20260905110302 65 225 0.0 0.0 0.00 0.25 0.00 99 1040.7
20260905105755 65 225 0.0 0.0 0.00 0.25 0.00 99 1040.7
20260905105250 65 225 0.0 0.0 0.00 0.25 0.00 99 1040.7
20260905104743 65 225 0.0 0.0 0.00 0.25 0.00 99 1040.7
20260905104503 65 225 0.0 0.0 0.00 0.25 0.00 99 1040.7
20260905103951 65 225 0.0 0.0 0.00 0.25 0.00 98 1040.2
20260905103226 65 225 0.0 0.0 0.00 0.25 0.00 99 1040.2
20260905102943 65 225 0.0 0.0 0.00 0.25 0.00 98 1040.2
20260905102207 65 225 0.0 0.0 0.00 0.25 0.00 98 1040.2
20260905101706 65 225 0.0 0.0 0.00 0.25 0.00 98 1040.2
20260905101201 65 225 0.0 0.0 0.00 0.25 0.00 99 1040.2
20260905100654 65 225 0.0 0.0 0.00 0.25 0.00 98 1040.2
20260905100149 65 225 0.0 0.0 0.00 0.25 0.00 98 1040.2
20260905095642 65 225 0.0 0.0 0.00 0.25 0.00 98 1040.2
20260905095137 65 225 0.0 0.0 0.00 0.25 0.00 98 1040.3
20260905094623 65 225 0.0 0.0 0.00 0.25 0.00 98 1040.3
20260905094125 65 225 0.0 0.0 0.00 0.25 0.00 98 1040.3
20260905093618 65 225 0.0 0.0 0.00 0.25 0.00 98 1040.2
20260905093112 65 225 0.0 0.0 0.00 0.25 0.00 98 1040.2
20260905092606 65 225 0.0 0.0 0.00 0.25 0.00 98 1040.2
20260905092053 65 225 0.0 0.0 0.00 0.25 0.00 98 1040.2
20260905091817 65 225 0.0 0.0 0.00 0.25 0.00 98 1040.2
20260905091532 65 225 0.0 0.0 0.00 0.25 0.00 98 1040.2
20260905090543 65 225 0.0 0.0 0.00 0.25 0.00 98 1040.3
20260905090037 65 225 0.0 0.0 0.00 0.25 0.00 98 1040.3
20260905085530 65 225 0.0 0.0 0.00 0.25 0.00 97 1040.3
20260905085022 65 225 0.0 0.0 0.00 0.25 0.00 97 1040.2
20260905084737 65 225 0.0 0.0 0.00 0.25 0.00 97 1040.2
20260905084249 66 225 0.0 0.0 0.00 0.25 0.00 97 1040.2
20260905083516 66 225 0.0 0.0 0.00 0.25 0.00 97 1040.3
20260905083015 66 225 0.0 0.0 0.00 0.25 0.00 97 1040.3
20260905082516 66 225 0.0 0.0 0.00 0.25 0.00 97 1040.3
20260905082232 66 225 0.0 0.0 0.00 0.25 0.00 97 1040.3
20260905081514 67 225 0.0 0.0 0.00 0.25 0.00 97 1040.3
20260905081013 67 225 0.0 0.0 0.00 0.25 0.00 97 1040.3
20260905080514 67 225 0.0 0.0 0.00 0.25 0.00 97 1040.3
20260905080016 67 225 0.0 0.0 0.00 0.25 0.00 97 1040.3
20260905075516 67 225 0.0 0.0 0.00 0.25 0.00 96 1040.3
20260905075011 67 225 0.0 0.0 0.00 0.25 0.00 96 1040.3
20260905074458 67 225 0.0 0.0 0.00 0.26 0.00 96 1040.3
20260905073957 68 225 0.0 0.0 0.00 0.26 0.00 96 1040.3
20260905073458 68 225 0.0 0.0 0.00 0.26 0.00 96 1040.6
20260905072958 68 225 0.0 0.0 0.00 0.26 0.00 96 1040.6
20260905072457 68 225 0.0 0.0 0.00 0.26 0.00 96 1040.6
20260905071958 68 225 0.0 0.0 0.00 0.26 0.00 96 1040.7
20260905071726 68 225 0.0 0.0 0.00 0.26 0.00 96 1040.7
20260905071000 69 225 0.0 0.0 0.00 0.26 0.00 95 1040.7
20260905070500 69 225 0.0 0.0 0.00 0.26 0.00 95 1040.8
20260905065954 69 225 0.0 0.0 0.00 0.26 0.00 95 1040.8
20260905065442 69 232 0.0 0.0 0.00 0.26 0.00 95 1040.8
20260905064931 69 231 0.0 0.0 0.00 0.26 0.00 95 1040.8
20260905064642 69 232 0.0 0.0 0.00 0.26 0.00 95 1040.8
20260905063906 69 232 0.0 0.0 0.00 0.26 0.00 94 1040.8
20260905063354 69 231 0.0 0.0 0.00 0.26 0.00 94 1041.0
20260905062844 70 231 0.0 0.0 0.00 0.26 0.00 94 1041.0
20260905062336 70 231 0.0 0.0 0.00 0.26 0.00 93 1041.3
20260905061830 70 231 0.0 0.0 0.00 0.26 0.00 93 1041.3
20260905061322 70 231 0.0 1.0 0.00 0.26 0.00 93 1041.3
20260905060817 71 231 0.0 2.0 0.00 0.26 0.00 93 1041.3
20260905060312 71 249 1.0 4.0 0.00 0.26 0.00 93 1041.3
20260905055801 71 230 1.0 4.0 0.00 0.26 0.00 93 1041.3
20260905055259 71 252 0.0 3.0 0.00 0.26 0.00 93 1041.5
20260905054754 71 241 0.0 2.0 0.00 0.26 0.00 93 1041.5
20260905054248 71 193 0.0 2.0 0.00 0.26 0.00 93 1041.5
20260905053741 71 218 0.0 3.0 0.00 0.26 0.00 94 1041.8
20260905053237 70 258 0.0 3.0 0.00 0.26 0.00 94 1041.8
20260905052730 70 207 0.0 1.0 0.00 0.26 0.00 94 1041.8
20260905052216 70 265 0.0 1.0 0.00 0.26 0.00 94 1042.2
20260905051718 70 240 0.0 3.0 0.00 0.26 0.00 95 1042.2
20260905051211 70 247 0.0 3.0 0.00 0.26 0.00 95 1042.2
20260905050706 70 277 0.0 2.0 0.00 0.26 0.00 95 1042.3
20260905050422 70 275 0.0 2.0 0.00 0.26 0.00 96 1042.3
20260905045646 70 238 0.0 2.0 0.00 0.26 0.00 96 1042.3
20260905045148 70 302 0.0 2.0 0.00 0.26 0.00 96 1042.2
20260905044634 70 304 0.0 2.0 0.00 0.26 0.00 96 1042.2
20260905044136 70 350 0.0 1.0 0.00 0.26 0.00 96 1042.2
20260905043852 70 257 0.0 1.0 0.00 0.26 0.00 97 1042.2
20260905043123 70 35 0.0 1.0 0.00 0.26 0.00 97 1042.2
20260905042617 70 38 0.0 1.0 0.00 0.26 0.00 97 1042.2
20260905042326 70 15 0.0 0.0 0.00 0.26 0.00 97 1042.1
20260905041606 70 292 0.0 1.0 0.00 0.27 0.00 97 1042.1
20260905041100 70 292 0.0 1.0 0.00 0.27 0.00 97 1042.1
20260905040817 70 299 0.0 1.0 0.00 0.29 0.00 97 1042.3
20260905040048 70 295 0.0 1.0 0.00 0.29 0.00 97 1042.3
20260905035542 70 295 0.0 1.0 0.00 0.30 0.29 97 1042.3
20260905035035 70 266 0.0 1.0 0.00 0.31 0.29 97 1042.3
20260905034529 70 266 0.0 1.0 0.00 0.31 0.29 98 1042.3
20260905034024 70 266 0.0 1.0 0.00 0.32 0.29 98 1042.3
20260905033734 70 266 0.0 0.0 0.00 0.32 0.29 98 1042.4
20260905033233 70 266 0.0 1.0 0.00 0.32 0.29 98 1042.4
20260905032506 70 266 0.0 1.0 0.00 0.32 0.29 98 1042.4
20260905031959 70 260 0.0 1.0 0.00 0.33 0.29 98 1042.3
20260905031715 70 260 0.0 1.0 0.00 0.33 0.29 99 1042.3
20260905030943 70 260 0.0 1.0 0.00 0.36 0.29 99 1042.3
20260905030442 70 260 0.0 1.0 0.00 0.37 0.29 99 1042.3
20260905025929 70 232 0.0 1.0 0.00 0.37 0.29 99 1042.3
20260905025430 70 227 0.0 0.0 0.00 0.37 0.29 99 1042.3
20260905024924 70 227 0.0 0.0 0.00 0.38 0.29 98 1042.2
20260905024418 69 227 0.0 0.0 0.00 0.40 0.29 98 1042.2
20260905023912 69 227 0.0 0.0 0.00 0.41 0.29 98 1042.2
20260905023358 70 227 0.0 0.0 0.00 0.46 0.29 98 1042.2
20260905022900 70 227 0.0 0.0 0.00 0.51 0.29 98 1042.2
20260905022354 70 227 0.0 0.0 0.00 0.63 0.29 98 1041.9
20260905021848 70 227 0.0 0.0 0.00 0.65 0.29 98 1041.9
20260905021342 70 227 0.0 0.0 0.00 0.65 0.29 98 1041.9
20260905020848 70 227 0.0 0.0 0.00 0.65 0.29 98 1041.7
20260905020329 70 227 0.0 0.0 0.00 0.65 0.29 98 1041.7
20260905015817 70 227 0.0 0.0 0.00 0.65 0.29 98 1041.7
20260905015318 70 227 0.0 0.0 0.00 0.65 0.29 98 1041.4
20260905014805 70 227 0.0 0.0 0.00 0.65 0.29 97 1041.4
20260905014306 70 227 0.0 0.0 0.00 0.65 0.29 97 1041.4
20260905013759 70 227 0.0 0.0 0.00 0.65 0.29 98 1041.2
20260905013253 70 227 0.0 0.0 0.00 0.65 0.29 97 1041.2
20260905012747 70 227 0.0 0.0 0.00 0.65 0.29 97 1041.2
20260905012236 71 227 0.0 0.0 0.00 0.65 0.29 97 1041.3
20260905011736 71 227 0.0 0.0 0.00 0.65 0.29 97 1041.3
20260905011223 71 227 0.0 0.0 0.00 0.65 0.29 97 1041.3
20260905010724 71 227 0.0 0.0 0.00 0.65 0.29 97 1041.2
20260905010218 71 227 0.0 0.0 0.00 0.65 0.29 97 1041.2
20260905005931 71 227 0.0 0.0 0.00 0.65 0.29 97 1041.2
20260905005204 71 227 0.0 0.0 0.00 0.65 0.29 97 1041.3
20260905004657 71 227 0.0 0.0 0.00 0.65 0.29 96 1041.3
20260905004152 72 227 0.0 0.0 0.00 0.65 0.29 96 1041.3
20260905003645 72 227 0.0 0.0 0.00 0.65 0.29 96 1041.3
20260905003140 72 227 0.0 0.0 0.00 0.65 0.29 96 1041.3
20260905002636 72 227 0.0 0.0 0.00 0.65 0.29 96 1041.3
20260905002137 72 227 0.0 0.0 0.00 0.65 0.29 96 1040.9
20260905001637 73 227 0.0 0.0 0.00 0.65 0.29 96 1040.9
20260905001137 73 227 0.0 0.0 0.00 0.65 0.29 96 1040.9
20260905000636 73 227 0.0 0.0 0.00 0.65 0.29 95 1041.1
20260905000134 73 227 0.0 0.0 0.00 0.65 0.29 95 1041.1
20260904235634 73 227 0.0 0.0 0.00 0.65 0.29 95 1041.1
20260904235135 73 227 0.0 0.0 0.00 0.65 0.29 95 1041.2
20260904234635 74 227 0.0 0.0 0.00 0.65 0.29 95 1041.2
20260904234133 74 227 0.0 0.0 0.00 0.65 0.29 94 1041.2
20260904233630 74 227 0.0 1.0 0.00 0.65 0.29 94 1041.3
20260904233129 74 227 0.0 1.0 0.00 0.65 0.29 94 1041.3
20260904232629 74 223 0.0 0.0 0.00 0.65 0.29 94 1041.3
20260904232348 74 223 0.0 0.0 0.00 0.65 0.29 94 1041.3
20260904231623 75 223 0.0 0.0 0.00 0.65 0.29 93 1041.3
20260904231112 75 223 0.0 0.0 0.00 0.65 0.29 93 1041.3
20260904230830 75 230 0.0 0.0 0.00 0.65 0.29 93 1041.2
20260904230113 75 230 0.0 1.0 0.00 0.65 0.29 93 1041.2
20260904225612 76 230 0.0 2.0 0.00 0.65 0.29 92 1041.2
20260904225112 76 230 0.0 2.0 0.00 0.65 0.29 93 1041.6
20260904224613 76 246 1.0 3.0 0.00 0.65 0.29 93 1041.6
20260904224113 76 238 0.0 3.0 0.00 0.65 0.29 92 1041.6
20260904223612 76 254 0.0 1.0 0.00 0.65 0.29 92 1041.8
20260904223335 76 272 0.0 2.0 0.00 0.65 0.29 92 1041.8
20260904222612 76 243 0.0 3.0 0.00 0.65 0.29 92 1041.8
20260904222112 76 265 1.0 5.0 0.00 0.65 0.29 92 1041.8
20260904221612 76 234 1.0 5.0 0.00 0.65 0.29 92 1041.8
20260904221113 76 264 1.0 4.0 0.00 0.65 0.29 93 1041.8
20260904220612 76 265 1.0 4.0 0.00 0.65 0.29 93 1041.6
20260904220113 76 269 1.0 4.0 0.00 0.65 0.29 93 1041.6
20260904215613 76 259 0.0 3.0 0.00 0.65 0.29 94 1041.6
20260904215113 76 253 0.0 2.0 0.00 0.65 0.29 94 1041.6
20260904214612 76 276 0.0 1.0 0.00 0.65 0.29 94 1041.6
20260904214110 76 225 0.0 0.0 0.00 0.65 0.29 94 1041.6
20260904214044 76 136 0.0 1.0 0.00 0.65 0.29 93 1042.1
20260904213323 76 241 0.0 1.0 0.00 0.65 0.29 93 1042.1
20260904212553 75 252 0.0 2.0 0.00 0.65 0.29 93 1042.1
20260904212046 75 275 1.0 5.0 0.00 0.65 0.29 93 1042.1
20260904211540 75 234 1.0 5.0 0.00 0.65 0.29 93 1042.1
20260904211034 75 281 1.0 4.0 0.00 0.65 0.29 93 1042.1
20260904210745 75 288 1.0 4.0 0.00 0.65 0.29 93 1042.3
20260904210018 75 157 1.0 3.0 0.00 0.65 0.29 93 1042.3
20260904205516 75 221 1.0 3.0 0.00 0.65 0.29 93 1042.3
20260904205235 75 260 0.0 5.0 0.00 0.65 0.29 93 1042.3
20260904204504 74 243 1.0 3.0 0.00 0.65 0.29 94 1042.3
20260904203958 74 250 1.0 3.0 0.00 0.65 0.29 93 1042.3
20260904203455 74 245 1.0 3.0 0.00 0.65 0.29 93 1042.4
20260904202956 74 260 0.0 2.0 0.00 0.65 0.29 94 1042.4
20260904202454 74 232 0.0 2.0 0.01 0.65 0.29 94 1042.4
20260904201951 74 272 0.0 3.0 0.01 0.65 0.29 94 1042.2
20260904201452 74 219 1.0 4.0 0.01 0.65 0.29 94 1042.2
20260904200951 74 240 1.0 4.0 0.06 0.65 0.29 94 1042.2
20260904200449 74 261 1.0 4.0 0.21 0.65 0.29 95 1041.7
20260904195950 74 232 1.0 4.0 0.25 0.65 0.29 94 1041.7
20260904195450 74 248 0.0 3.0 0.25 0.65 0.29 94 1041.7
20260904194950 74 236 0.0 1.0 0.25 0.65 0.29 94 1041.8
20260904194710 74 147 0.0 1.0 0.25 0.65 0.29 94 1041.8
20260904193948 75 147 0.0 2.0 0.25 0.65 0.29 93 1041.8
20260904193931 75 146 1.0 5.0 0.25 0.65 0.29 92 1042.2
20260904192943 76 138 2.0 6.0 0.25 0.65 0.29 91 1042.2
20260904192443 76 223 1.0 6.0 0.24 0.64 0.28 90 1042.2
20260904191944 77 254 1.0 6.0 0.24 0.64 0.28 89 1042.3
20260904191446 79 349 3.0 17.0 0.24 0.64 0.28 86 1042.3
20260904190945 83 150 3.0 17.0 0.19 0.59 0.23 79 1042.3
20260904190438 87 209 1.0 7.0 0.01 0.41 0.07 78 1041.4
20260904185927 88 103 0.0 1.0 0.00 0.40 0.04 75 1041.4
20260904185426 89 103 0.0 2.0 0.00 0.40 0.04 74 1041.4
20260904184926 89 103 1.0 3.0 0.00 0.40 0.04 72 1041.6
20260904184426 90 122 1.0 3.0 0.00 0.40 0.04 71 1041.6
20260904183926 90 111 0.0 2.0 0.00 0.40 0.04 70 1041.6
20260904183647 91 173 1.0 5.0 0.00 0.40 0.04 72 1041.7
20260904183153 91 127 2.0 5.0 0.00 0.40 0.04 68 1041.7
20260904182428 92 302 2.0 5.0 0.00 0.40 0.04 69 1041.7
20260904181928 92 244 2.0 6.0 0.00 0.40 0.04 68 1042.3
20260904181422 91 273 2.0 6.0 0.00 0.40 0.04 69 1042.3
20260904180910 91 115 2.0 8.0 0.00 0.40 0.04 69 1042.3
20260904180409 91 270 2.0 9.0 0.00 0.40 0.04 69 1042.3
20260904175909 91 319 2.0 9.0 0.00 0.40 0.04 67 1042.3
20260904175410 91 66 1.0 8.0 0.00 0.40 0.04 72 1042.3
20260904174910 90 227 2.0 7.0 0.00 0.40 0.04 70 1042.4
20260904174409 90 237 3.0 7.0 0.00 0.40 0.04 69 1042.4
20260904173909 90 244 3.0 8.0 0.00 0.40 0.04 70 1042.4
20260904173412 90 275 2.0 8.0 0.00 0.40 0.04 69 1042.7
20260904173137 90 254 1.0 6.0 0.00 0.40 0.04 73 1042.7
20260904172406 89 192 1.0 6.0 0.00 0.40 0.04 71 1042.7
20260904171854 89 241 1.0 6.0 0.00 0.40 0.04 72 1042.9
20260904171342 89 38 2.0 6.0 0.00 0.40 0.04 71 1042.9
20260904170832 89 42 2.0 6.0 0.00 0.40 0.04 73 1043.0
20260904170543 89 59 1.0 5.0 0.00 0.40 0.04 72 1043.0
20260904165819 88 314 1.0 5.0 0.00 0.40 0.04 71 1043.0
20260904165312 88 329 2.0 4.0 0.00 0.40 0.04 70 1043.2
20260904164807 88 306 1.0 4.0 0.00 0.40 0.04 73 1043.2
20260904164300 88 321 1.0 4.0 0.00 0.40 0.04 76 1043.2
20260904163755 87 223 2.0 5.0 0.00 0.40 0.04 71 1043.4
20260904163243 87 132 2.0 5.0 0.00 0.40 0.04 75 1043.4
20260904162741 87 74 2.0 7.0 0.00 0.40 0.04 72 1043.4
20260904162236 87 248 2.0 7.0 0.00 0.40 0.04 73 1043.5
20260904161730 87 227 2.0 6.0 0.00 0.40 0.04 73 1043.5
20260904161224 86 131 2.0 7.0 0.00 0.40 0.04 73 1043.5
20260904160718 86 138 1.0 7.0 0.00 0.40 0.04 74 1043.5
20260904160433 85 254 1.0 4.0 0.00 0.40 0.04 74 1043.5
20260904155701 85 309 2.0 5.0 0.00 0.40 0.04 72 1043.5
20260904155159 85 281 2.0 7.0 0.00 0.40 0.04 76 1043.4
20260904154654 85 236 2.0 7.0 0.00 0.40 0.04 72 1043.4
20260904154148 85 269 2.0 7.0 0.00 0.40 0.04 73 1043.4
20260904153908 85 236 2.0 6.0 0.00 0.40 0.04 73 1043.5
20260904153135 85 222 2.0 5.0 0.00 0.40 0.04 76 1043.5
20260904152629 84 238 2.0 6.0 0.00 0.40 0.04 74 1043.5
20260904152346 84 236 1.0 6.0 0.00 0.40 0.04 74 1043.7
20260904151834 84 252 2.0 7.0 0.00 0.40 0.04 76 1043.7
20260904151104 84 24 3.0 7.0 0.00 0.40 0.04 77 1043.7
20260904150603 83 240 2.0 7.0 0.00 0.40 0.04 77 1043.8
20260904150058 83 253 2.0 7.0 0.00 0.40 0.04 77 1043.8
20260904145552 84 258 1.0 4.0 0.00 0.40 0.04 76 1043.8
20260904145046 83 256 2.0 7.0 0.00 0.40 0.04 78 1043.9
20260904144540 83 254 2.0 7.0 0.00 0.41 0.04 77 1043.9
20260904144034 83 277 1.0 4.0 0.00 0.44 0.04 77 1043.9
20260904143527 83 76 1.0 4.0 0.00 0.45 0.04 79 1043.8
20260904143021 82 236 2.0 4.0 0.00 0.47 0.04 80 1043.8
20260904142511 82 231 2.0 9.0 0.00 0.47 0.04 79 1043.8
20260904142009 82 227 1.0 9.0 0.00 0.47 0.04 79 1044.0
20260904141947 82 310 1.0 4.0 0.00 0.47 0.04 80 1044.0
20260904140957 82 231 0.0 4.0 0.00 0.47 0.04 80 1044.0
20260904140451 82 290 0.0 4.0 0.00 0.47 0.04 84 1043.9
20260904135938 81 277 1.0 4.0 0.00 0.47 0.04 81 1043.9
20260904135439 80 108 1.0 4.0 0.00 0.47 0.04 82 1043.9
20260904134926 80 255 2.0 6.0 0.00 0.47 0.04 83 1043.9
20260904134427 79 236 2.0 6.0 0.00 0.47 0.04 83 1043.9
20260904133922 79 239 1.0 5.0 0.00 0.47 0.04 83 1043.9